Time,TemperatureF,DewpointF,PressureIn,WindDirection,WindDirectionDegrees,WindSpeedMPH,WindSpeedGustMPH,Humidity,HourlyPrecipIn,Conditions,Clouds,dailyrainin,SolarRadiationWatts/m^2,SoftwareType,DateUTC
2013-06-15 00:10:00,60.7,50.0,30.02,ESE,111,0.0,1.0,69,0.00,,,0.00,0,weatherlink.com 1.10,2013-06-15 05:10:00,
2013-06-15 00:25:00,60.4,50.0,30.04,ESE,111,0.0,1.0,69,0.00,,,0.00,0,weatherlink.com 1.10,2013-06-15 05:25:00,
2013-06-15 00:40:00,60.3,50.0,30.03,ESE,111,0.0,0.0,70,0.00,,,0.00,0,weatherlink.com 1.10,2013-06-15 05:40:00,
2013-06-15 00:55:00,59.7,51.0,30.04,ESE,111,0.0,0.0,74,0.00,,,0.00,0,weatherlink.com 1.10,2013-06-15 05:55:00,
2013-06-15 01:10:00,59.0,51.0,30.04,ESE,111,0.0,0.0,75,0.00,,,0.00,0,weatherlink.com 1.10,2013-06-15 06:10:00,
2013-06-15 01:25:00,58.5,51.0,30.03,ESE,111,0.0,0.0,76,0.00,,,0.00,0,weatherlink.com 1.10,2013-06-15 06:25:00,
2013-06-15 01:40:00,58.4,50.0,30.01,ESE,111,0.0,1.0,74,0.00,,,0.00,0,weatherlink.com 1.10,2013-06-15 06:40:00,
2013-06-15 01:55:00,58.6,51.0,30.02,ESE,111,0.0,2.0,76,0.00,,,0.00,0,weatherlink.com 1.10,2013-06-15 06:55:00,
2013-06-15 02:10:00,58.6,52.0,30.03,ESE,111,0.0,0.0,79,0.00,,,0.00,0,weatherlink.com 1.10,2013-06-15 07:10:00,
2013-06-15 02:25:00,58.7,52.0,30.04,ESE,111,0.0,0.0,77,0.00,,,0.00,0,weatherlink.com 1.10,2013-06-15 07:25:00,
2013-06-15 02:40:00,58.8,52.0,30.05,ESE,111,0.0,0.0,78,0.00,,,0.00,0,weatherlink.com 1.10,2013-06-15 07:40:00,
2013-06-15 02:55:00,59.2,53.0,30.07,WSW,252,1.0,4.0,80,0.00,,,0.00,0,weatherlink.com 1.10,2013-06-15 07:55:00,
2013-06-15 03:10:00,59.4,53.0,30.07,SW,235,0.0,1.0,80,0.00,,,0.00,0,weatherlink.com 1.10,2013-06-15 08:10:00,
2013-06-15 03:25:00,58.9,54.0,30.08,SW,232,0.0,1.0,84,0.01,,,0.01,0,weatherlink.com 1.10,2013-06-15 08:25:00,
2013-06-15 03:41:00,57.7,54.0,30.07,SSW,212,0.0,2.0,88,0.04,,,0.04,0,weatherlink.com 1.10,2013-06-15 08:41:00,
2013-06-15 03:56:00,57.0,55.0,30.06,SSW,212,0.0,0.0,91,0.08,,,0.08,0,weatherlink.com 1.10,2013-06-15 08:56:00,
2013-06-15 04:11:00,56.3,54.0,30.04,SSW,212,0.0,0.0,92,0.13,,,0.13,0,weatherlink.com 1.10,2013-06-15 09:11:00,
2013-06-15 04:26:00,56.0,54.0,30.03,SSW,212,0.0,0.0,94,0.12,,,0.14,0,weatherlink.com 1.10,2013-06-15 09:26:00,
2013-06-15 04:41:00,55.8,54.0,30.03,SSW,212,0.0,0.0,95,0.14,,,0.18,0,weatherlink.com 1.10,2013-06-15 09:41:00,
2013-06-15 04:56:00,56.0,55.0,30.02,SSW,212,0.0,2.0,96,0.13,,,0.22,0,weatherlink.com 1.10,2013-06-15 09:56:00,
2013-06-15 05:11:00,56.6,56.0,30.01,SSW,194,0.0,2.0,96,0.11,,,0.24,0,weatherlink.com 1.10,2013-06-15 10:11:00,
2013-06-15 05:26:00,57.0,56.0,29.99,SSW,195,1.0,3.0,97,0.13,,,0.27,0,weatherlink.com 1.10,2013-06-15 10:26:00,
2013-06-15 05:41:00,57.2,56.0,29.99,South,173,1.0,3.0,96,0.11,,,0.29,0,weatherlink.com 1.10,2013-06-15 10:41:00,
2013-06-15 05:56:00,57.4,57.0,29.98,South,190,0.0,3.0,97,0.08,,,0.30,0,weatherlink.com 1.10,2013-06-15 10:56:00,
2013-06-15 06:11:00,57.9,57.0,29.98,South,172,1.0,4.0,97,0.07,,,0.31,5,weatherlink.com 1.10,2013-06-15 11:11:00,
2013-06-15 06:26:00,58.2,57.0,29.98,SSE,165,0.0,3.0,97,0.06,,,0.33,7,weatherlink.com 1.10,2013-06-15 11:26:00,
2013-06-15 06:41:00,58.5,58.0,29.97,South,181,3.0,4.0,97,0.05,,,0.34,9,weatherlink.com 1.10,2013-06-15 11:41:00,
2013-06-15 06:56:00,58.6,58.0,29.97,SW,215,1.0,5.0,97,0.06,,,0.36,14,weatherlink.com 1.10,2013-06-15 11:56:00,
2013-06-15 07:11:00,58.8,58.0,29.96,SSE,155,0.0,2.0,97,0.05,,,0.36,21,weatherlink.com 1.10,2013-06-15 12:11:00,
2013-06-15 07:26:00,59.2,59.0,29.97,SW,224,0.0,1.0,98,0.04,,,0.37,51,weatherlink.com 1.10,2013-06-15 12:26:00,
2013-06-15 07:45:00,59.6,59.0,29.97,ENE,76,0.0,2.0,98,0.02,,,0.37,93,weatherlink.com 1.10,2013-06-15 12:45:00,
2013-06-15 07:56:00,59.8,59.0,29.97,ENE,76,0.0,0.0,98,0.01,,,0.37,70,weatherlink.com 1.10,2013-06-15 12:56:00,
2013-06-15 08:11:00,60.2,60.0,29.96,ENE,76,0.0,1.0,98,0.01,,,0.37,83,weatherlink.com 1.10,2013-06-15 13:11:00,
2013-06-15 08:26:00,60.7,60.0,29.95,East,101,0.0,1.0,98,0.00,,,0.37,127,weatherlink.com 1.10,2013-06-15 13:26:00,
2013-06-15 08:41:00,61.7,61.0,29.94,South,189,0.0,2.0,98,0.00,,,0.37,181,weatherlink.com 1.10,2013-06-15 13:41:00,
2013-06-15 08:56:00,62.5,62.0,29.93,SSW,192,0.0,3.0,98,0.00,,,0.37,181,weatherlink.com 1.10,2013-06-15 13:56:00,
2013-06-15 09:12:00,63.5,63.0,29.94,SSW,202,0.0,3.0,98,0.00,,,0.37,248,weatherlink.com 1.10,2013-06-15 14:12:00,
2013-06-15 09:27:00,63.8,63.0,29.96,South,173,0.0,2.0,97,0.00,,,0.37,199,weatherlink.com 1.10,2013-06-15 14:27:00,
2013-06-15 09:42:00,64.4,63.0,29.97,South,173,0.0,0.0,96,0.00,,,0.37,188,weatherlink.com 1.10,2013-06-15 14:42:00,
2013-06-15 09:57:00,65.6,63.0,29.97,ENE,72,0.0,2.0,92,0.00,,,0.37,320,weatherlink.com 1.10,2013-06-15 14:57:00,
2013-06-15 10:11:00,66.2,64.0,29.98,ENE,65,0.0,0.0,91,0.00,,,0.37,165,weatherlink.com 1.10,2013-06-15 15:11:00,
2013-06-15 10:26:00,66.3,63.0,29.97,ENE,65,0.0,0.0,90,0.00,,,0.37,285,weatherlink.com 1.10,2013-06-15 15:26:00,
2013-06-15 10:41:00,66.5,64.0,29.97,ESE,105,0.0,0.0,91,0.00,,,0.37,288,weatherlink.com 1.10,2013-06-15 15:41:00,
2013-06-15 10:56:00,67.8,65.0,29.96,SE,134,1.0,2.0,90,0.00,,,0.37,454,weatherlink.com 1.10,2013-06-15 15:56:00,
2013-06-15 11:11:00,68.7,65.0,29.97,SE,134,0.0,3.0,88,0.00,,,0.37,461,weatherlink.com 1.10,2013-06-15 16:11:00,
2013-06-15 11:27:00,69.7,66.0,29.98,South,181,0.0,2.0,88,0.00,,,0.37,373,weatherlink.com 1.10,2013-06-15 16:27:00,
2013-06-15 11:42:00,70.1,66.0,29.98,SSW,195,0.0,2.0,87,0.00,,,0.37,232,weatherlink.com 1.10,2013-06-15 16:42:00,
2013-06-15 11:57:00,70.2,66.0,29.98,SSW,198,0.0,1.0,86,0.00,,,0.37,236,weatherlink.com 1.10,2013-06-15 16:57:00,
2013-06-15 12:12:00,70.7,66.0,29.98,SSW,198,0.0,2.0,86,0.00,,,0.37,239,weatherlink.com 1.10,2013-06-15 17:12:00,
2013-06-15 12:27:00,71.1,67.0,29.97,SSW,198,0.0,1.0,86,0.00,,,0.37,492,weatherlink.com 1.10,2013-06-15 17:27:00,
2013-06-15 12:42:00,72.7,68.0,29.96,South,174,0.0,3.0,85,0.00,,,0.37,471,weatherlink.com 1.10,2013-06-15 17:42:00,
2013-06-15 12:57:00,73.2,69.0,29.96,SSW,209,0.0,3.0,87,0.00,,,0.37,490,weatherlink.com 1.10,2013-06-15 17:57:00,
2013-06-15 13:12:00,73.5,68.0,29.96,SW,214,3.0,3.0,83,0.00,,,0.37,387,weatherlink.com 1.10,2013-06-15 18:12:00,
2013-06-15 13:27:00,72.5,67.0,29.97,SSW,207,3.0,4.0,83,0.00,,,0.37,135,weatherlink.com 1.10,2013-06-15 18:27:00,
2013-06-15 13:42:00,72.3,68.0,29.96,SSW,207,0.0,3.0,85,0.00,,,0.37,418,weatherlink.com 1.10,2013-06-15 18:42:00,
2013-06-15 13:57:00,73.1,68.0,29.96,SSW,200,0.0,2.0,83,0.00,,,0.37,244,weatherlink.com 1.10,2013-06-15 18:57:00,
2013-06-15 14:12:00,73.3,68.0,29.96,SSW,194,0.0,1.0,84,0.00,,,0.37,172,weatherlink.com 1.10,2013-06-15 19:12:00,
2013-06-15 14:27:00,73.3,68.0,29.95,South,175,0.0,1.0,84,0.00,,,0.37,236,weatherlink.com 1.10,2013-06-15 19:27:00,
2013-06-15 14:42:00,74.2,68.0,29.94,South,175,0.0,1.0,82,0.00,,,0.37,506,weatherlink.com 1.10,2013-06-15 19:42:00,
2013-06-15 14:57:00,76.2,70.0,29.94,SSE,164,0.0,2.0,82,0.00,,,0.37,624,weatherlink.com 1.10,2013-06-15 19:57:00,
2013-06-15 15:12:00,77.2,71.0,29.93,SSW,205,0.0,3.0,81,0.00,,,0.37,432,weatherlink.com 1.10,2013-06-15 20:12:00,
2013-06-15 15:27:00,76.6,70.0,29.92,South,185,0.0,1.0,79,0.00,,,0.37,292,weatherlink.com 1.10,2013-06-15 20:27:00,
2013-06-15 15:42:00,77.0,72.0,29.90,South,186,0.0,2.0,83,0.00,,,0.37,705,weatherlink.com 1.10,2013-06-15 20:42:00,
2013-06-15 15:57:00,78.6,72.0,29.90,South,182,0.0,2.0,80,0.00,,,0.37,754,weatherlink.com 1.10,2013-06-15 20:57:00,
2013-06-15 16:12:00,79.1,71.0,29.89,SSW,192,1.0,2.0,76,0.00,,,0.37,401,weatherlink.com 1.10,2013-06-15 21:12:00,
2013-06-15 16:27:00,78.5,70.0,29.88,SSW,199,0.0,2.0,76,0.00,,,0.37,578,weatherlink.com 1.10,2013-06-15 21:27:00,
2013-06-15 16:42:00,79.5,71.0,29.87,SSE,150,1.0,3.0,76,0.00,,,0.37,661,weatherlink.com 1.10,2013-06-15 21:42:00,
2013-06-15 16:58:00,79.4,71.0,29.86,South,186,0.0,3.0,76,0.00,,,0.37,471,weatherlink.com 1.10,2013-06-15 21:58:00,
2013-06-15 17:13:00,78.9,72.0,29.86,SSE,153,0.0,1.0,79,0.00,,,0.37,517,weatherlink.com 1.10,2013-06-15 22:13:00,
2013-06-15 17:28:00,77.8,71.0,29.85,SSE,166,0.0,2.0,79,0.00,,,0.37,309,weatherlink.com 1.10,2013-06-15 22:28:00,
2013-06-15 17:43:00,78.7,71.0,29.83,SE,145,0.0,3.0,78,0.00,,,0.37,517,weatherlink.com 1.10,2013-06-15 22:43:00,
2013-06-15 17:58:00,78.8,71.0,29.84,SE,144,0.0,2.0,76,0.00,,,0.37,142,weatherlink.com 1.10,2013-06-15 22:58:00,
2013-06-15 18:13:00,77.5,71.0,29.84,SSE,168,0.0,2.0,80,0.00,,,0.37,142,weatherlink.com 1.10,2013-06-15 23:13:00,
2013-06-15 18:28:00,77.3,71.0,29.83,SSW,198,1.0,2.0,81,0.00,,,0.37,232,weatherlink.com 1.10,2013-06-15 23:28:00,
2013-06-15 18:43:00,78.0,71.0,29.83,SSE,165,0.0,1.0,80,0.00,,,0.37,230,weatherlink.com 1.10,2013-06-15 23:43:00,
2013-06-15 18:58:00,77.2,71.0,29.82,SSE,165,0.0,1.0,80,0.00,,,0.37,74,weatherlink.com 1.10,2013-06-15 23:58:00,
2013-06-15 19:13:00,76.2,70.0,29.82,SSE,165,0.0,0.0,82,0.00,,,0.37,44,weatherlink.com 1.10,2013-06-16 00:13:00,
2013-06-15 19:28:00,75.4,70.0,29.81,SSE,165,0.0,1.0,84,0.00,,,0.37,42,weatherlink.com 1.10,2013-06-16 00:28:00,
2013-06-15 19:43:00,75.0,70.0,29.82,SSE,165,0.0,0.0,85,0.00,,,0.37,12,weatherlink.com 1.10,2013-06-16 00:43:00,
2013-06-15 19:58:00,74.6,70.0,29.81,SSE,165,0.0,0.0,86,0.00,,,0.37,5,weatherlink.com 1.10,2013-06-16 00:58:00,
2013-06-15 20:13:00,74.1,70.0,29.82,SSE,165,0.0,0.0,87,0.00,,,0.37,0,weatherlink.com 1.10,2013-06-16 01:13:00,
2013-06-15 20:28:00,73.9,70.0,29.82,SSE,165,0.0,1.0,87,0.00,,,0.37,0,weatherlink.com 1.10,2013-06-16 01:28:00,
2013-06-15 20:43:00,73.7,70.0,29.80,SSE,165,0.0,0.0,87,0.00,,,0.37,0,weatherlink.com 1.10,2013-06-16 01:43:00,
2013-06-15 20:58:00,73.5,70.0,29.82,SSW,198,2.0,2.0,89,0.01,,,0.38,0,weatherlink.com 1.10,2013-06-16 01:58:00,
2013-06-15 21:13:00,69.7,67.0,29.82,SW,219,1.0,4.0,92,0.28,,,0.65,0,weatherlink.com 1.10,2013-06-16 02:13:00,
2013-06-15 21:28:00,68.3,67.0,29.81,South,171,0.0,3.0,94,0.29,,,0.66,0,weatherlink.com 1.10,2013-06-16 02:28:00,
2013-06-15 21:43:00,67.9,66.0,29.83,SW,221,1.0,5.0,94,0.29,,,0.66,0,weatherlink.com 1.10,2013-06-16 02:43:00,
2013-06-15 21:58:00,68.6,67.0,29.86,NW,325,5.0,15.0,93,0.44,,,0.82,0,weatherlink.com 1.10,2013-06-16 02:58:00,
2013-06-15 22:13:00,67.2,66.0,29.86,WNW,290,6.0,12.0,95,0.30,,,0.95,0,weatherlink.com 1.10,2013-06-16 03:13:00,
2013-06-15 22:28:00,67.0,66.0,29.85,NNW,343,0.0,9.0,96,0.33,,,0.99,0,weatherlink.com 1.10,2013-06-16 03:28:00,
2013-06-15 22:43:00,66.8,66.0,29.85,North,355,0.0,4.0,96,0.33,,,0.99,0,weatherlink.com 1.10,2013-06-16 03:43:00,
2013-06-15 22:58:00,66.5,66.0,29.84,WNW,295,0.0,2.0,97,0.16,,,0.99,0,weatherlink.com 1.10,2013-06-16 03:58:00,
2013-06-15 23:13:00,66.4,66.0,29.84,West,269,1.0,3.0,97,0.04,,,0.99,0,weatherlink.com 1.10,2013-06-16 04:13:00,
2013-06-15 23:28:00,66.3,66.0,29.84,WSW,254,4.0,5.0,97,0.00,,,0.99,0,weatherlink.com 1.10,2013-06-16 04:28:00,
2013-06-15 23:43:00,66.2,65.0,29.84,WSW,248,2.0,6.0,97,0.00,,,0.99,0,weatherlink.com 1.10,2013-06-16 04:43:00,
2013-06-15 23:58:00,66.1,65.0,29.85,WSW,250,1.0,3.0,97,0.00,,,0.99,0,weatherlink.com 1.10,2013-06-16 04:58:00,